Torna al catalogo

STARLINK-37251

AttivoComunicazioniVLEO
NORAD 68514·PAYLOAD·🇺🇸 United States

Lanciato Mar 30, 2026 da Cape Canaveral Space Force Station

Loading…

Prossimi Passaggi (prossime 24 ore)

TLE

AggiornatoSource: CelesTrak SupGP

Epoca: Sep 15, 2026, 03:04 UTC

1 68514C 26068G   26258.12826389  .00052310  00000+0  15457-2 0  2580
2 68514  53.1584 325.0741 0001249  96.8270 106.0658 15.34360865    10

Traccia STARLINK-37251 in tempo reale con AllMySat

Download on the App Store